Boise, ID

2:32 AM MDT on May 23, 2017 (GMT -0600)
Boise Air Term

Weather History for KBOI - March, 2014

Change the Weather History Date:

Saturday, March 29, 2014

  Actual Average Record
Temperature  
Mean Temperature 48 °F 47 °F  
Max Temperature 54 °F 58 °F 81 °F (1978)
Min Temperature 41 °F 37 °F 20 °F (1949)
Degree Days  
Heating Degree Days 17 18  
Month to date heating degree days 550 602  
Since 1 July heating degree days 4890 4761  
Cooling Degree Days 0 0  
Month to date cooling degree days 0 0  
Year to date cooling degree days 0 0  
Moisture  
Dew Point 40 °F    
Average Humidity 66    
Maximum Humidity 86    
Minimum Humidity 46    
Precipitation  
Precipitation 0.52 in 0.05 in 2.46 in (1904)
Month to date precipitation 2.29 1.30  
Year to date precipitation 5.30 3.53  
Snow  
Snow 0.00 in 0.00 in 3.00 in (1904)
Month to date snowfall T 1.2  
Since 1 July snowfall 14.4 18.8  
Snow Depth 0.00 in    
Sea Level Pressure  
Sea Level Pressure 29.88 in    
Wind  
Wind Speed 9 mph (SE)    
Max Wind Speed 20 mph    
Max Gust Speed 26 mph    
Visibility 8 miles    
Events Rain    
T = Trace of Precipitation, MM = Missing Value Source: NWS Daily Summary

Daily Weather History Graph

Daily Weather History Graph

Search for Another Location

Airport or City:

Trip Planner

Search our weather history database for the weather conditions in past years. The results will help you decide how hot, cold, wet, or windy it might be!

Date:

Astronomy

Mar. 29, 2014 Rise Set
Actual Time 7:31 AM MDT 8:08 PM MDT
Civil Twilight 7:02 AM MDT 8:36 PM MDT
Nautical Twilight 6:28 AM MDT 9:11 PM MDT
Astronomical Twilight 5:53 AM MDT 9:46 PM MDT
Moon 6:45 AM MDT (3/29) 7:17 PM MDT (3/29)
Length of Visible Light 13h 34m
Length of Day
12h 36m
Waning Crescent, 1% of the Moon is Illuminated
Mar 29
Waning Crescent
Mar 30
New
Apr 7
First Quarter
Apr 15
Full
Apr 22
Last Quarter

Hourly Weather History & Observations

Time (MDT) Temp. Windchill Dew Point Humidity Pressure Visibility Wind Dir Wind Speed Gust Speed Precip Events Conditions
12:53 AM 54.0 °F - 34.0 °F 47% 29.88 in 10.0 mi SE 11.5 mph - N/A   Mostly Cloudy
1:53 AM 54.0 °F - 34.0 °F 47% 29.86 in 10.0 mi SE 16.1 mph - N/A   Mostly Cloudy
2:53 AM 54.0 °F - 34.0 °F 47% 29.84 in 10.0 mi ESE 12.7 mph - N/A   Mostly Cloudy
3:53 AM 53.1 °F - 34.0 °F 48% 29.83 in 10.0 mi SE 12.7 mph - N/A   Mostly Cloudy
4:53 AM 52.0 °F - 35.1 °F 53% 29.84 in 10.0 mi SSE 12.7 mph - N/A   Overcast
5:53 AM 48.9 °F - 39.0 °F 69% 29.87 in 10.0 mi SE 12.7 mph - 0.01 in   Overcast
6:53 AM 46.9 °F - 41.0 °F 80% 29.88 in 8.0 mi ESE 6.9 mph - 0.02 in Rain Light Rain
7:53 AM 48.0 °F - 39.9 °F 74% 29.88 in 10.0 mi SE 11.5 mph - 0.04 in   Overcast
8:53 AM 46.9 °F - 41.0 °F 80% 29.90 in 10.0 mi ESE 13.8 mph - 0.00 in   Overcast
9:53 AM 48.9 °F - 41.0 °F 74% 29.91 in 10.0 mi Calm Calm - 0.00 in Rain Light Rain
10:53 AM 50.0 °F - 42.1 °F 74% 29.90 in 10.0 mi East 3.5 mph - 0.02 in   Overcast
11:53 AM 48.9 °F - 44.1 °F 83% 29.90 in 10.0 mi East 9.2 mph - N/A   Overcast
12:53 PM 48.9 °F - 44.1 °F 83% 29.90 in 5.0 mi SE 5.8 mph - 0.04 in Rain Light Rain
1:53 PM 48.0 °F - 43.0 °F 83% 29.91 in 5.0 mi SSE 10.4 mph - 0.10 in Rain Light Rain
2:53 PM 48.9 °F - 45.0 °F 86% 29.87 in 10.0 mi East 11.5 mph - 0.00 in   Overcast
3:49 PM 46.4 °F 42.9 °F 39.2 °F 76% 29.90 in 1.8 mi WSW 6.9 mph 26.5 mph 0.03 in Rain Heavy Rain
3:53 PM 46.0 °F 43.1 °F 39.0 °F 76% 29.88 in 1.5 mi WSW 5.8 mph 26.5 mph 0.05 in Rain Rain
3:59 PM 46.4 °F 42.4 °F 41.0 °F 81% 29.90 in 3.0 mi WSW 8.1 mph - 0.00 in Rain Light Rain
4:13 PM 46.4 °F 39.5 °F 41.0 °F 81% 29.92 in 2.5 mi West 17.3 mph 21.9 mph 0.02 in Rain Rain
4:23 PM 44.6 °F 40.2 °F 41.0 °F 87% 29.92 in 3.0 mi West 8.1 mph 18.4 mph 0.04 in Rain Light Rain
4:53 PM 46.0 °F 43.1 °F 41.0 °F 83% 29.90 in 8.0 mi NNE 5.8 mph - 0.05 in Rain Light Rain
5:53 PM 46.0 °F 43.1 °F 42.1 °F 86% 29.86 in 10.0 mi ESE 5.8 mph - 0.01 in   Overcast
6:53 PM 46.9 °F - 41.0 °F 80% 29.86 in 10.0 mi SE 6.9 mph - N/A   Overcast
7:53 PM 46.0 °F 41.9 °F 39.9 °F 79% 29.83 in 10.0 mi ESE 8.1 mph - 0.00 in   Overcast
8:53 PM 45.0 °F - 39.9 °F 82% 29.85 in 10.0 mi Calm Calm - N/A   Overcast
9:53 PM 45.0 °F 39.3 °F 41.0 °F 86% 29.87 in 9.0 mi North 11.5 mph 16.1 mph 0.00 in Rain Light Rain
10:53 PM 42.1 °F 37.1 °F 42.1 °F 100% 29.85 in 10.0 mi East 8.1 mph - 0.04 in   Overcast
11:53 PM 42.1 °F 36.1 °F - N/A% 29.86 in 10.0 mi SE 10.4 mph - 0.00 in Rain Light Rain